Left ArrowRight Arrow

39.71368, -82.59933

Hourly Observations for June 14, 2024

Temp ( °F °C ) Dew Point ( °F °C ) Humidity (%) Winds ( mph kmh ) Pressure ( in mb ) Visibility ( mi km ) Precip ( " mm )
12:53 am 00:53 Clear 72 22.2 58 14.4 61 61 SSW 3 6 29.91 1013 10 16 0.00 0.00
1:53 am 01:53 Clear 71 21.7 59 15 66 66 S 3 6 29.90 1013 10 16 0.00 0.00
2:53 am 02:53 Clear 68 20 61 16.1 78 78 SSE 3 6 29.88 1012 10 16 0.00 0.00
3:53 am 03:53 Clear 72 22.2 58 14.4 61 61 WSW 3 6 29.89 1012 10 16 0.00 0.00
4:53 am 04:53 Clear 71 21.7 58 14.4 63 63 W 7 11 29.90 1012 10 16 0.00 0.00
5:53 am 05:53 Mostly Clear 67 19.4 59 15 76 76 S 6 9 29.90 1012 10 16 0.00 0.00
6:53 am 06:53 Mostly Cloudy 67 19.4 61 16.1 81 81 Calm 29.93 1013 10 16 0.00 0.00
7:53 am 07:53 Sunny 68 20 65 18.3 90 90 SE 3 6 29.93 1014 10 16 0.00 0.00
8:53 am 08:53 Sunny 75 23.9 61 16.1 62 62 WSW 7 11 29.94 1014 10 16 0.00 0.00
9:53 am 09:53 Sunny 77 25 62 16.7 60 60 VRB 5 7 29.94 1014 10 16 0.00 0.00
10:53 am 10:53 Sunny 79 26.1 62 16.7 56 56 W 10 17 29.94 1014 10 16 0.00 0.00
11:53 am 11:53 Partly Cloudy 81 27.2 63 17.2 54 54 VRB 6 9 29.93 1013 10 16 0.00 0.00
12:53 pm 12:53 Mostly Cloudy 81 27.2 64 17.8 57 57 VRB 5 7 29.92 1013 10 16 0.00 0.00
1:53 pm 13:53 Cloudy 80 26.7 65 18.3 60 60 SW 7 11 29.91 1013 10 16 0.00 0.00
2:53 pm 14:53 Partly Cloudy 82 27.8 65 18.3 56 56 WSW 8 13 29.91 1013 10 16 0.00 0.00
3:53 pm 15:53 Partly Cloudy 84 28.9 66 18.9 55 55 W 7 11 29.89 1012 10 16 0.00 0.00
4:53 pm 16:53 Mostly Sunny 84 28.9 65 18.3 53 53 W 6 9 29.88 1012 10 16 0.00 0.00
5:53 pm 17:53 Cloudy with Nearby Thunderstorms 81 27.2 64 17.8 57 57 VRB 5 7 29.86 1011 10 16 0.00 0.00
6:05 pm 18:05 Cloudy with Strong Thunderstorms 72 22.2 66 18.9 82 82 WNW 33 54 29.93 1014 1 2 0.12 3.05
6:10 pm 18:10 Cloudy with Strong Thunderstorms 66 18.9 64 17.8 93 93 NW 23 37 29.94 1014 0 0 0.46 11.68
6:20 pm 18:20 Cloudy with Thunderstorms 68 20 65 18.3 90 90 VRB 3 6 29.91 1013 1 2 0.00 0.00
6:22 pm 18:22 Cloudy with Thunderstorms 68 20 65 18.3 90 90 SSE 6 9 29.91 1013 3 5 0.00 0.00
6:32 pm 18:32 Mostly Cloudy with Nearby Thunderstorms 70 21.1 68 20 93 93 ESE 7 11 29.91 1013 10 16 0.00 0.00
6:44 pm 18:44 Partly Cloudy 70 21.1 67 19.4 90 90 S 5 7 29.91 1013 10 16 0.00 0.00
6:53 pm 18:53 Mostly Sunny 71 21.7 67 19.4 87 87 Calm 29.91 1013 10 16 0.00 0.00
7:53 pm 19:53 Partly Cloudy 73 22.8 68 20 84 84 E 6 9 29.93 1014 10 16 0.00 0.00
8:53 pm 20:53 Sunny 71 21.7 69 20.6 93 93 Calm 29.95 1014 10 16 0.00 0.00
9:53 pm 21:53 Clear with Mist and Fog 67 19.4 67 19.4 100 100 N 5 7 29.98 1015 6 10 0.00 0.00
10:53 pm 22:53 Clear 65 18.3 63 17.2 93 93 Calm 30.01 1016 10 16 0.00 0.00
11:53 pm 23:53 Clear 63 17.2 58 14.4 84 84 NNE 6 9 30.03 1017 10 16 0.00 0.00

Powered by Vaisala Xweather